Temp
40 38 35 39 41 44 40 36 38 40 49 49 47 49 51 51 54 50 49 47 48 46 48 49 50 49 51 50 52 54 58 59 58 58 59 59 59 63 63 64 65 65 64 65
35 32 43 46 45 44 41 35 34 41 48 47 44 45 49 48 47 48 46 44 41 42 44 46 46 46 46 46 47 50 53 56 58 57 58 59 58 59 61 63 64 65 66 65
29 35 44 44 44 41 41 38 34 36 42 41 40 35 44 43 43 42 40 40 39 38 39 42 44 42 43 44 44 48 50 52 56 57 58 56 57 57 58 59 61 63 65 64
32 37 37 38 35 40 34 46 43 41 37 30 40 25 34 38 36 36 35 34 34 36 39 40 41 41 42 42 44 46 49 51 55 56 57 56 56 55 57 59 60 62 63 65
25 32 32 33 35 39 36 45 45 41 33 30 30 26 28 34 31 31 31 33 33 34 36 37 38 41 42 42 42 44 47 49 51 52 56 57 56 57 56 57 59 61 62 64
25 35 33 33 36 35 39 38 41 39 33 26 30 29 24 30 30 29 31 33 34 35 35 37 40 42 41 41 42 43 45 47 48 49 52 56 57 55 55 55 56 58 63 62
22 25 30 31 29 36 35 33 26 25 24 24 34 26 19 26 30 30 29 30 31 33 35 36 36 38 40 39 40 43 43 44 46 46 50 55 56 56 56 56 58 60 57 59
12 12 21 24 24 22 24 31 28 20 22 26 33 23 18 27 29 30 31 31 32 31 32 34 35 37 38 39 40 40 42 42 44 45 48 52 55 56 57 57 58 59 61 60
12 15 26 24 23 21 20 22 24 27 28 28 17 16 25 27 26 27 27 28 27 29 31 32 34 35 37 39 40 40 41 42 44 44 46 49 54 56 58 59 58 58 59 60
18 11 21 23 21 19 15 18 20 27 18 16 12 13 14 20 22 25 23 24 26 28 29 31 33 34 36 38 39 41 42 42 43 44 45 47 49 54 58 58 58 58 59 58
20 17 17 20 9 7 8 6 8 13 17 21 8 8 20 20 22 22 23 25 25 26 28 29 31 33 35 36 37 38 40 41 42 43 44 44 47 51 55 57 58 59 59 58
23 18 9 9 13 17 13 8 8 8 12 9 10 5 21 21 23 23 23 25 25 27 27 28 30 31 32 33 35 36 39 40 41 43 43 44 46 50 53 56 57 57 58 59
21 10 2 3 11 17 6 10 9 10 13 -1 4 4 20 21 20 23 23 24 25 26 26 27 28 28 29 31 33 36 38 38 41 41 43 42 44 46 50 54 56 57 57 57
24 13 10 -1 2 10 5 9 10 8 4 0 2 4 11 15 16 19 22 24 23 25 26 26 25 27 28 30 32 34 35 37 39 40 42 41 42 44 49 52 54 56 56 56
18 6 10 10 12 12 9 7 8 5 6 1 4 4 10 14 15 17 21 24 24 24 25 25 25 25 26 27 29 32 33 36 37 38 39 41 42 45 49 50 51 56 55 55
18 9 13 9 13 12 7 9 9 8 7 7 7 5 14 17 18 17 19 20 21 22 23 24 25 25 25 26 27 29 30 34 36 37 38 41 42 42 43 49 50 53 55 54
11 10 10 6 13 14 2 7 8 7 9 8 2 8 13 14 15 15 17 19 19 20 22 23 23 24 25 25 27 26 29 32 34 34 35 37 38 39 42 45 49 49 53 54
9 9 13 0 4 -10 6 14 14 9 9 11 11 11 12 13 16 17 18 17 18 19 20 21 22 23 23 25 25 27 29 30 32 32 33 34 36 36 40 42 47 47 49 53
9 -3 -6 -9 -4 3 7 10 8 7 5 11 10 11 12 14 18 15 19 19 19 20 21 22 23 23 23 23 24 25 26 27 29 29 29 32 34 34 37 40 42 46 47 49
16 5 1 -2 -9 -5 -0 11 16 14 3 12 12 11 10 13 8 11 16 19 19 21 22 22 23 23 22 23 23 23 23 25 24 26 28 30 32 34 34 37 41 45 46 47
1 -1 -7 -0 -7 -1 7 10 13 1 1 12 12 11 10 7 10 15 19 18 19 21 21 23 22 20 21 23 22 21 22 22 24 27 28 30 32 32 36 38 41 43 44 46
-8 -11 -4 1 -5 -10 10 8 -2 2 4 11 11 11 10 12 14 16 17 17 18 18 19 21 20 20 21 22 21 20 20 23 24 25 26 27 31 33 36 37 40 43 43 43
-5 -3 -6 -3 3 9 8 1 2 -2 -1 1 1 9 10 10 12 14 14 14 15 16 17 20 18 17 19 20 21 18 20 22 22 23 23 25 29 32 36 38 40 41 42 42
5 3 -3 -1 3 4 6 6 10 4 2 -2 -1 1 9 7 10 11 12 11 13 14 16 18 17 16 16 18 20 19 21 22 21 21 22 24 26 31 33 36 39 41 40 40
0 1 -4 -5 -1 4 9 6 1 2 4 2 1 -1 -1 0 3 3 6 8 8 11 14 14 14 14 15 17 18 19 21 21 20 22 23 24 27 27 29 33 35 38 42 41
-9 -5 -7 -5 -3 -4 -2 -4 -6 -2 1 1 -4 3 2 -3 -1 -5 2 3 2 6 8 9 11 12 12 13 15 18 19 20 19 20 22 24 26 27 28 28 32 38 41 42
MSLP
1010.09 1009.79 1007.96 1006.19 1006.61 1007.71 1007.62 1007.93 1007.97 1007.61 1007.53 1007.69 1007.67 1008.75 1009.04 1009.54 1010.33 1011.19 1012.20 1013.23 1014.17 1014.92 1015.70 1015.67 1015.58 1015.47 1015.50 1015.85 1015.94 1015.96 1015.77 1015.67 1016.01 1016.55 1017.09 1017.48 1017.66 1017.70 1017.96 1018.11 1018.41 1018.89 1019.33 1019.75
1010.73 1009.02 1007.32 1008.28 1008.40 1008.28 1008.17 1008.16 1007.90 1008.02 1007.60 1007.86 1008.61 1009.26 1010.04 1010.64 1011.47 1012.00 1013.07 1014.51 1015.35 1016.17 1016.54 1016.67 1016.73 1016.76 1016.76 1016.87 1016.78 1016.69 1016.66 1016.46 1016.23 1016.27 1016.68 1017.06 1017.52 1017.72 1017.64 1017.75 1018.10 1018.56 1018.93 1019.51
1011.39 1009.22 1008.99 1008.44 1007.88 1007.97 1007.54 1007.46 1008.27 1008.10 1008.22 1008.55 1009.27 1010.73 1011.20 1012.62 1013.14 1014.01 1015.22 1016.02 1016.72 1017.29 1017.60 1017.71 1017.69 1017.76 1017.67 1017.62 1017.60 1017.46 1017.27 1016.95 1016.58 1016.61 1016.73 1017.22 1017.51 1017.82 1018.03 1018.13 1018.39 1018.55 1018.78 1019.11
1011.93 1010.27 1009.43 1008.69 1008.35 1008.02 1006.94 1007.31 1008.11 1008.41 1008.68 1008.66 1009.11 1011.42 1012.83 1013.76 1014.94 1016.05 1017.09 1017.84 1018.25 1018.44 1018.54 1018.55 1018.55 1018.43 1018.43 1018.46 1018.25 1017.95 1017.66 1017.32 1016.87 1016.72 1016.72 1016.91 1017.23 1017.75 1017.75 1017.94 1018.20 1018.39 1018.55 1018.85
1012.36 1011.12 1010.23 1009.28 1008.73 1008.86 1007.35 1007.23 1007.76 1008.63 1008.97 1009.63 1010.33 1012.29 1013.62 1014.95 1016.75 1017.93 1018.65 1019.09 1019.41 1019.47 1019.44 1019.48 1019.45 1019.38 1019.33 1019.13 1018.83 1018.46 1018.11 1017.71 1017.43 1017.12 1016.96 1016.86 1017.13 1017.29 1017.55 1017.85 1018.12 1018.29 1018.43 1018.59
1014.45 1012.92 1012.22 1010.70 1010.09 1009.76 1008.99 1008.04 1007.94 1008.79 1009.56 1009.87 1010.25 1012.22 1015.40 1016.22 1016.98 1018.87 1019.74 1020.08 1020.34 1020.37 1020.25 1020.14 1020.00 1019.84 1019.86 1019.61 1019.35 1019.03 1018.71 1018.27 1017.94 1017.64 1017.23 1017.01 1016.95 1017.26 1017.66 1017.96 1018.23 1018.32 1018.41 1018.71
1015.82 1014.40 1013.63 1012.82 1011.84 1010.62 1009.89 1008.77 1007.59 1007.91 1008.61 1008.61 1010.35 1013.24 1017.15 1018.31 1018.72 1019.83 1020.54 1021.10 1021.17 1021.17 1021.04 1020.95 1020.79 1020.57 1020.37 1020.16 1019.95 1019.67 1019.40 1018.92 1018.53 1018.18 1017.68 1017.06 1016.89 1016.94 1017.22 1017.58 1017.92 1018.25 1018.49 1018.56
1017.89 1016.25 1015.69 1015.52 1014.57 1013.50 1011.80 1009.86 1007.58 1006.72 1007.10 1008.74 1010.80 1014.73 1018.47 1020.04 1020.55 1021.07 1021.54 1021.93 1022.03 1022.03 1022.06 1021.94 1021.76 1021.52 1021.16 1020.82 1020.52 1020.24 1019.87 1019.40 1019.16 1018.76 1018.19 1017.35 1016.90 1016.89 1016.92 1017.18 1017.53 1017.82 1018.03 1018.21
1019.33 1017.60 1017.17 1016.94 1016.71 1016.31 1014.33 1012.85 1011.13 1009.56 1009.04 1010.33 1014.39 1018.51 1020.42 1021.26 1021.91 1022.29 1022.58 1022.76 1022.99 1023.02 1022.83 1022.69 1022.44 1022.16 1021.82 1021.35 1021.10 1020.82 1020.45 1019.86 1019.54 1019.32 1018.72 1017.98 1017.31 1016.95 1016.67 1016.78 1017.03 1017.33 1017.63 1017.92
1019.82 1018.85 1018.43 1018.15 1018.28 1018.28 1017.84 1016.65 1014.22 1011.67 1010.82 1012.21 1016.46 1018.88 1020.53 1022.11 1022.87 1023.43 1023.72 1023.97 1024.13 1024.06 1023.86 1023.70 1023.43 1023.08 1022.60 1022.20 1021.76 1021.31 1020.79 1020.35 1019.99 1019.58 1019.17 1018.57 1017.95 1017.20 1016.73 1016.54 1016.72 1016.96 1017.11 1017.28
1019.93 1019.76 1019.50 1019.53 1021.50 1022.05 1020.58 1019.70 1018.30 1016.12 1013.76 1013.26 1018.35 1021.54 1022.65 1023.25 1024.01 1024.44 1024.74 1025.04 1025.10 1025.06 1024.93 1024.74 1024.45 1024.02 1023.47 1022.86 1022.41 1021.94 1021.27 1020.81 1020.26 1019.82 1019.43 1018.88 1018.25 1017.54 1016.85 1016.39 1016.40 1016.38 1016.59 1016.79
1020.34 1020.27 1021.05 1022.16 1022.89 1022.78 1022.95 1022.93 1021.65 1019.30 1017.72 1017.99 1019.34 1024.12 1024.78 1024.90 1025.28 1025.56 1025.76 1025.88 1025.98 1026.03 1025.91 1025.65 1025.37 1024.90 1024.20 1023.57 1023.04 1022.43 1021.79 1021.18 1020.67 1020.23 1019.78 1019.16 1018.38 1017.61 1016.84 1016.39 1016.24 1016.33 1016.28 1016.43
1021.17 1021.57 1022.33 1022.85 1023.26 1023.72 1024.13 1023.69 1022.21 1021.93 1020.96 1022.43 1022.75 1026.26 1026.54 1026.51 1026.49 1026.60 1026.59 1026.72 1026.64 1026.70 1026.51 1026.31 1026.02 1025.59 1025.18 1024.53 1023.80 1022.92 1022.31 1021.64 1021.05 1020.62 1019.93 1019.34 1018.83 1018.15 1017.22 1016.43 1016.03 1016.06 1016.23 1016.37
1022.37 1023.28 1023.41 1025.04 1026.42 1026.13 1025.53 1025.12 1023.59 1022.57 1022.83 1024.88 1026.10 1027.11 1028.06 1027.79 1027.65 1027.73 1027.69 1027.49 1027.21 1027.20 1027.16 1027.00 1026.79 1026.48 1026.12 1025.42 1024.44 1023.63 1022.84 1022.18 1021.45 1020.89 1020.17 1019.59 1019.11 1018.39 1017.61 1016.65 1016.02 1015.83 1015.91 1015.95
1024.26 1025.80 1025.89 1026.55 1026.83 1026.41 1027.00 1026.60 1025.95 1025.43 1026.20 1026.63 1028.56 1028.65 1028.91 1028.80 1028.93 1028.92 1028.75 1028.32 1027.81 1027.62 1027.60 1027.55 1027.49 1027.27 1026.72 1025.96 1025.17 1024.38 1023.53 1022.67 1021.90 1021.14 1020.64 1019.89 1019.25 1018.51 1017.23 1016.78 1016.03 1015.45 1015.40 1015.64
1025.53 1026.42 1026.90 1027.40 1027.40 1027.32 1028.17 1028.72 1028.49 1027.94 1028.04 1028.39 1029.20 1029.89 1030.01 1029.88 1029.56 1029.74 1029.73 1029.27 1028.83 1028.45 1028.19 1028.14 1028.03 1027.80 1027.35 1026.75 1025.99 1025.20 1024.34 1023.24 1022.24 1021.50 1021.03 1020.34 1019.65 1018.74 1018.38 1016.99 1016.29 1015.62 1015.19 1015.34
1026.91 1027.24 1027.79 1027.81 1027.67 1027.72 1029.00 1030.33 1030.56 1030.75 1030.83 1030.79 1031.14 1031.69 1031.14 1030.63 1030.50 1030.92 1030.70 1030.12 1029.68 1029.23 1029.07 1028.98 1028.75 1028.52 1028.02 1027.43 1026.72 1025.90 1024.88 1023.85 1022.93 1022.10 1021.72 1021.04 1020.32 1019.57 1018.53 1017.86 1016.39 1015.73 1015.03 1014.95
1028.16 1028.36 1028.50 1029.28 1028.96 1030.17 1031.46 1031.34 1031.30 1031.70 1032.20 1032.31 1032.44 1032.17 1031.90 1031.68 1031.71 1031.36 1031.29 1030.62 1030.57 1030.29 1029.85 1029.64 1029.42 1029.01 1028.47 1027.84 1027.09 1026.25 1025.22 1024.17 1023.41 1022.83 1022.28 1021.61 1021.14 1020.22 1019.19 1017.43 1016.54 1016.05 1015.46 1014.70
1029.09 1029.55 1030.66 1031.50 1031.91 1032.44 1031.95 1032.11 1032.21 1032.20 1032.87 1032.91 1032.46 1032.44 1032.39 1031.71 1030.63 1031.56 1031.93 1031.81 1031.69 1030.73 1030.41 1030.09 1029.80 1029.38 1028.79 1028.27 1027.58 1026.58 1025.56 1024.64 1023.95 1023.37 1022.87 1022.59 1021.60 1020.23 1018.99 1018.28 1017.15 1016.07 1015.75 1015.01
1030.02 1030.32 1031.04 1032.40 1033.25 1033.46 1033.47 1033.03 1032.91 1032.88 1033.45 1033.95 1034.01 1033.85 1033.49 1032.64 1032.14 1032.67 1032.63 1032.39 1031.79 1031.17 1030.71 1030.33 1030.11 1029.73 1029.00 1028.46 1027.90 1026.96 1026.05 1025.23 1024.56 1023.71 1022.96 1022.19 1021.42 1020.47 1019.14 1018.57 1017.52 1016.60 1016.05 1015.30
1033.18 1033.26 1033.84 1033.90 1034.37 1034.51 1034.19 1033.71 1033.42 1034.20 1036.01 1035.10 1034.71 1034.47 1034.09 1033.69 1033.68 1033.04 1032.88 1032.84 1032.28 1031.52 1031.12 1030.69 1030.51 1029.88 1029.25 1028.89 1028.56 1027.34 1026.70 1025.76 1024.91 1024.00 1023.04 1022.20 1021.31 1020.52 1019.65 1018.36 1017.13 1016.32 1016.31 1014.95
1035.95 1036.01 1035.90 1035.39 1035.24 1035.45 1034.99 1034.64 1035.18 1036.47 1036.34 1036.43 1036.41 1036.11 1035.59 1035.16 1034.57 1034.03 1033.64 1033.10 1032.47 1031.90 1031.50 1031.22 1030.57 1030.02 1029.74 1029.47 1028.80 1027.97 1027.23 1026.27 1025.22 1024.02 1023.09 1022.19 1021.30 1020.34 1019.28 1018.35 1017.27 1016.70 1015.87 1015.06
1037.00 1036.83 1036.98 1036.87 1036.40 1035.88 1035.94 1036.50 1036.77 1036.85 1037.19 1037.20 1037.24 1036.86 1036.67 1036.40 1035.71 1035.00 1034.50 1033.86 1033.22 1032.69 1032.10 1031.46 1030.74 1030.11 1029.90 1029.87 1029.31 1028.36 1027.50 1026.53 1025.30 1024.01 1023.08 1022.16 1021.29 1020.44 1019.33 1018.14 1016.91 1016.25 1015.52 1014.92
1037.15 1037.23 1037.76 1037.78 1037.06 1036.83 1036.82 1036.99 1037.21 1037.45 1037.57 1037.56 1037.50 1037.13 1036.79 1036.67 1036.35 1036.10 1035.39 1034.80 1034.17 1033.08 1032.38 1032.26 1031.67 1031.16 1030.66 1030.05 1029.07 1028.52 1027.62 1026.60 1025.42 1024.06 1023.12 1022.30 1021.31 1020.22 1019.41 1018.45 1017.33 1016.46 1016.02 1015.46
1038.07 1038.06 1038.41 1038.52 1037.93 1037.70 1037.56 1037.57 1037.67 1037.68 1037.57 1037.73 1037.56 1037.35 1037.07 1036.96 1036.51 1036.09 1035.61 1035.04 1034.27 1033.51 1032.97 1032.72 1032.18 1031.63 1030.82 1029.79 1029.11 1028.46 1027.89 1026.68 1025.24 1024.10 1023.28 1022.46 1021.31 1020.63 1019.62 1018.69 1017.73 1016.63 1015.81 1015.37
1039.03 1039.20 1039.16 1038.96 1038.54 1038.55 1038.31 1037.91 1037.96 1037.96 1037.69 1037.41 1037.60 1037.14 1036.70 1036.59 1036.36 1035.87 1035.28 1034.56 1033.96 1033.46 1033.11 1032.84 1032.41 1031.64 1030.70 1030.09 1029.38 1028.76 1027.99 1026.77 1025.56 1024.24 1023.60 1022.86 1021.63 1020.82 1020.03 1019.05 1017.44 1016.46 1015.64 1014.99
Wind_Speed
4 12 21 34 29 15 3 4 13 5 8 13 21 16 8 3 13 10 8 10 12 11 5 9 10 10 7 10 9 7 2 5 4 3 3 2 3 2 3 4 7 8 6 6
6 19 28 16 17 19 19 5 6 3 7 9 9 11 4 5 3 6 14 10 9 7 8 9 10 10 11 8 8 8 7 5 3 3 3 3 4 2 2 4 5 7 9 8
12 13 15 20 19 23 23 24 4 5 4 2 10 2 7 7 13 14 13 11 10 8 8 8 10 10 9 11 9 9 8 7 4 3 4 3 3 3 2 2 3 4 8 9
8 9 15 13 9 19 26 25 14 7 10 11 8 6 5 8 11 11 10 9 8 8 9 9 9 10 10 9 8 8 8 7 6 3 4 5 5 4 3 4 3 4 7 9
8 9 9 17 12 9 7 15 20 12 5 6 3 6 2 11 7 8 7 9 8 7 8 9 8 8 8 8 8 7 8 7 8 8 5 6 5 4 3 3 5 5 4 7
11 12 6 7 4 4 8 7 19 16 8 9 9 8 5 8 7 7 7 9 8 8 8 8 7 8 9 8 9 8 10 8 10 9 7 7 8 6 4 4 4 4 4 4
11 5 7 7 3 6 8 8 9 15 16 11 16 5 3 6 12 11 11 9 7 7 10 11 11 10 10 10 10 9 10 9 11 11 11 6 7 9 9 7 7 8 4 4
5 6 8 11 6 5 5 12 5 12 10 22 13 10 6 9 11 11 10 10 11 12 10 11 10 10 9 9 9 9 10 10 10 11 12 8 6 6 6 7 6 7 9 7
5 3 4 9 4 6 5 4 10 2 2 13 9 5 9 10 11 11 12 13 12 11 11 11 11 10 10 10 10 9 10 10 11 10 10 10 7 4 7 9 8 8 9 7
4 6 9 6 6 7 5 6 1 7 10 7 5 6 9 11 11 11 11 11 10 11 12 11 11 11 10 10 9 10 10 10 10 10 9 8 10 8 4 4 7 8 9 8
2 4 4 7 8 9 8 7 6 4 3 6 9 2 5 10 10 10 11 11 10 11 11 10 10 11 10 10 10 10 10 11 11 10 10 10 9 9 7 4 4 5 8 10
4 3 4 4 4 4 7 8 3 2 6 5 6 5 5 9 8 12 11 11 10 10 10 10 10 11 12 12 12 11 10 10 11 11 10 10 10 10 9 6 5 4 5 8
8 4 1 5 3 6 6 20 7 3 1 5 4 5 7 8 11 10 10 9 9 11 11 10 11 11 12 12 11 12 12 11 10 11 10 10 10 10 9 7 5 6 5 5
7 9 8 6 4 6 9 20 20 3 5 5 8 12 9 8 11 11 10 9 8 11 12 11 11 12 11 13 12 12 12 11 11 11 11 10 12 12 10 8 6 5 6 7
5 6 12 10 12 20 19 20 21 23 7 5 8 12 7 8 11 10 11 11 12 13 14 14 12 12 12 13 13 13 12 12 12 11 12 10 13 12 11 8 7 5 4 5
5 5 6 9 13 21 19 20 20 16 14 12 12 12 7 9 10 12 12 13 13 14 15 15 15 14 13 13 13 13 13 13 12 10 12 12 12 13 12 11 8 8 7 6
4 3 4 1 9 7 9 13 14 13 15 8 8 4 9 8 11 11 11 12 14 15 14 15 15 15 12 12 13 13 12 11 11 11 12 13 13 13 13 14 8 8 6 7
3 1 1 1 4 6 3 6 8 14 11 12 9 9 9 7 2 9 12 12 12 13 13 13 12 13 12 12 13 13 11 11 10 10 12 13 13 13 12 12 10 9 8 7
3 2 4 5 4 3 0 6 4 5 7 12 11 11 11 13 4 7 14 10 9 11 11 11 11 12 11 12 13 12 12 11 11 11 11 12 14 14 12 12 12 10 10 9
9 5 5 3 5 2 4 7 7 5 2 10 9 10 11 12 3 3 12 11 12 11 10 11 12 11 11 13 13 12 11 12 12 14 14 14 13 13 13 12 11 8 10 9
7 6 5 4 4 3 3 11 5 1 2 7 8 9 10 6 5 11 11 11 11 11 12 10 11 10 11 12 13 12 12 13 14 13 13 13 12 12 12 11 10 8 11 9
2 3 3 3 4 3 4 5 7 5 3 2 2 4 6 8 10 9 11 11 12 13 13 12 11 12 11 11 12 12 12 14 14 13 13 13 13 11 10 11 10 8 7 8
4 5 4 5 3 0 1 5 3 4 4 3 2 4 4 6 7 9 9 10 10 11 11 10 10 11 11 10 10 12 13 14 14 12 13 13 13 12 11 11 11 7 6 6
3 2 1 4 3 2 2 1 2 5 5 4 4 4 5 5 6 7 7 6 7 8 9 9 10 9 11 11 12 10 13 14 13 13 13 11 12 14 11 9 8 6 4 4
4 2 1 4 4 2 2 3 4 3 3 3 4 5 6 3 6 4 5 5 5 6 5 6 7 8 9 10 11 11 13 13 13 12 12 11 10 12 12 10 8 8 7 5
2 5 4 5 6 5 7 4 3 3 4 5 3 5 4 4 7 3 6 4 3 6 3 5 7 7 9 9 10 11 12 13 12 13 11 11 10 11 10 10 11 15 15 13
Wind_Direction
244 213 214 214 215 220 187 199 211 243 216 173 196 190 194 176 186 173 158 119 114 92 67 48 42 36 50 47 43 24 270 179 142 126 136 129 163 167 168 169 174 171 174 162
222 229 232 233 228 230 239 245 225 240 201 183 180 197 105 37 53 136 130 116 105 96 64 47 40 37 39 36 22 23 17 335 233 148 143 147 152 197 177 176 175 178 175 169
267 257 250 242 222 220 229 224 170 178 179 49 115 129 157 61 81 80 68 80 69 73 69 49 46 37 29 27 13 7 353 338 286 216 115 77 71 65 140 191 178 174 180 173
259 285 253 239 245 238 223 219 194 191 183 205 161 197 152 138 91 70 71 65 66 66 59 52 42 38 28 14 6 1 352 346 345 258 187 162 166 170 196 174 176 170 168 175
262 356 335 231 234 246 253 211 209 210 181 117 229 111 179 137 124 107 88 82 67 59 64 58 50 47 33 19 10 352 354 359 360 349 244 192 186 179 146 140 182 185 174 172
260 290 284 349 314 322 285 238 198 197 207 218 204 143 212 183 154 118 92 75 71 65 60 57 48 49 37 25 23 6 360 5 1 353 306 224 194 169 155 163 185 208 188 182
314 23 2 355 300 223 269 167 180 194 204 214 186 163 72 33 86 100 98 78 57 50 53 46 39 34 32 24 19 15 6 9 2 352 344 245 213 187 185 180 190 193 187 190
332 331 15 340 12 324 294 228 211 211 186 192 168 165 143 92 78 78 72 68 56 51 46 40 32 30 24 24 20 13 8 13 6 354 342 326 224 203 192 183 184 200 210 208
303 311 30 51 20 355 332 235 325 192 309 174 112 74 85 98 76 66 62 55 47 37 32 29 23 20 14 17 17 13 8 10 10 358 346 337 345 245 198 190 189 193 198 200
290 292 12 11 28 15 1 357 328 218 181 129 82 115 139 145 106 80 65 56 44 37 31 25 19 13 11 12 8 7 11 9 1 358 352 341 323 324 249 214 199 206 205 179
341 280 32 43 18 42 353 9 332 244 280 191 129 92 38 102 99 84 76 63 47 38 27 19 13 8 9 8 5 360 5 3 359 358 346 340 330 322 299 219 224 221 197 192
333 324 37 71 184 139 93 354 259 302 3 34 41 92 15 87 87 75 62 63 57 42 29 20 12 5 6 4 360 356 358 359 358 346 345 338 333 331 313 222 207 205 194 193
328 6 37 329 310 46 36 353 275 199 106 14 94 127 43 75 72 58 59 53 48 41 30 21 12 9 1 355 354 356 356 355 353 343 346 343 335 327 325 310 219 197 200 177
49 5 67 102 143 31 16 19 15 12 65 106 47 103 48 32 69 53 43 41 47 37 27 20 13 4 357 353 352 352 351 350 345 348 341 346 337 327 310 306 302 208 194 175
76 71 89 102 95 72 46 27 22 48 68 72 122 81 53 49 62 44 35 32 35 28 20 13 8 360 353 354 350 347 348 345 344 349 344 342 336 327 338 319 334 258 227 202
353 141 142 127 94 73 60 40 34 28 32 61 68 57 355 80 72 49 30 26 25 21 13 6 3 356 353 348 347 341 341 339 347 348 347 342 341 343 325 332 321 308 217 210
12 136 199 174 234 271 31 26 51 53 37 33 49 19 16 51 66 50 34 28 18 13 9 2 359 350 345 341 341 339 332 334 344 358 348 339 339 329 330 316 335 340 255 206
318 303 124 276 10 46 158 27 71 79 48 37 47 25 12 354 146 62 28 23 12 5 0 354 351 343 342 337 341 335 335 340 351 350 345 338 326 319 312 334 337 334 329 243
53 108 55 95 47 107 65 21 344 355 58 22 16 9 359 338 266 68 16 1 2 3 355 348 346 340 339 339 341 337 342 345 348 347 337 323 320 321 329 319 326 337 323 318
14 63 98 68 90 82 238 326 322 281 127 12 4 0 356 355 58 11 350 342 350 358 352 355 345 341 342 345 340 341 342 346 342 338 330 322 318 316 320 306 316 318 311 296
346 357 66 24 99 301 284 312 297 159 16 355 1 351 344 353 328 318 333 339 341 349 346 356 344 344 344 342 336 345 340 343 334 327 326 322 317 314 298 301 312 336 301 307
141 80 11 358 66 358 4 356 96 223 315 312 353 328 324 318 309 325 326 335 340 343 343 346 345 344 341 339 338 337 339 333 328 329 327 325 320 316 311 307 299 291 316 313
27 166 184 151 196 291 340 157 242 167 204 277 193 278 286 286 304 315 320 325 329 334 334 342 339 338 336 334 337 334 330 332 328 330 331 328 324 321 313 314 307 308 320 328
322 146 138 54 292 267 204 185 203 189 204 230 242 247 275 262 286 290 296 303 313 328 330 333 330 330 325 329 334 332 327 332 331 332 334 329 332 327 327 317 310 301 290 304
203 65 197 268 301 353 232 222 215 265 237 233 257 220 233 241 275 253 273 278 282 294 298 314 312 314 318 327 326 329 328 332 338 337 335 334 330 330 322 317 306 304 295 272
180 198 118 234 225 164 241 240 231 245 268 264 219 293 259 201 258 249 280 270 274 290 295 312 306 313 318 320 318 322 325 334 336 342 340 329 338 333 326 319 318 317 312 296